Theta_e
306 306 305 304 304 305 306 306 306 306 307 307 308 309 309 309 308 307 307 310 304 302 304 305 307 306 308 309 309 311 311 312 312 309 307 308 308 310 310 313 312 311 309 308 310 307 303 317 316 311 320 322 324 324
306 306 305 305 304 304 305 306 305 305 307 307 308 309 309 308 307 306 303 308 308 301 303 308 308 309 308 308 306 311 312 314 315 311 313 313 309 310 312 305 311 309 315 311 313 312 321 321 322 324 323 325 326 327
305 305 305 304 304 304 305 305 305 306 307 306 308 309 309 308 307 306 305 307 304 301 303 304 304 309 311 310 311 306 314 313 317 319 317 316 310 313 307 309 310 312 315 314 315 317 319 320 322 325 327 327 327 328
305 306 305 304 304 304 306 306 305 305 306 306 307 308 309 307 307 306 304 307 303 301 298 302 309 307 311 312 312 311 312 314 314 317 317 316 311 313 312 313 312 313 317 315 316 318 320 321 324 325 325 327 326 326
305 305 305 305 304 305 305 305 306 305 306 306 307 308 308 307 307 307 307 307 307 300 298 301 306 309 311 311 310 312 312 311 315 315 314 312 314 313 316 313 310 315 316 311 311 321 320 321 324 325 324 323 323 323
305 305 305 304 305 305 305 306 305 305 306 306 307 308 308 307 306 305 301 306 307 307 299 298 307 309 311 311 311 312 313 313 315 316 313 314 312 314 310 308 314 317 321 322 319 323 324 325 325 325 323 323 324 323
305 305 305 305 305 305 305 305 305 305 305 306 307 307 307 306 306 301 299 303 305 308 300 299 304 309 310 311 311 311 313 315 314 316 313 315 313 315 312 307 314 316 318 321 323 324 321 322 321 324 323 323 322 324
305 305 304 304 305 305 305 305 305 305 305 306 307 307 306 305 304 303 308 306 306 302 302 299 301 304 311 306 305 312 310 312 311 312 314 314 313 317 311 315 316 318 320 321 321 321 322 323 322 322 323 323 321 320
305 305 305 305 305 305 305 305 305 305 306 307 306 304 306 304 303 306 308 308 308 304 299 301 299 298 310 308 308 308 311 305 311 309 309 311 310 309 313 315 317 319 318 319 321 321 320 320 320 321 321 321 319 318
305 305 305 305 305 305 304 304 305 306 306 304 305 303 298 306 308 309 307 303 302 304 304 299 303 301 305 305 306 306 308 305 302 305 310 306 308 310 311 315 319 320 322 321 318 317 318 318 319 320 320 320 319 317
304 304 304 305 305 304 304 305 306 304 302 305 303 301 309 309 309 307 300 299 300 296 301 301 301 301 308 302 302 308 304 305 298 302 304 303 303 308 313 314 318 322 321 320 319 320 321 321 321 319 318 318 317 316
305 305 305 304 304 305 305 306 305 305 306 303 304 308 311 307 302 295 297 299 297 295 302 302 303 305 308 314 308 310 303 305 296 306 301 299 306 311 314 315 317 320 320 320 321 321 322 321 320 319 318 316 315 314
304 304 304 304 305 306 306 306 306 305 305 309 306 301 301 300 290 290 289 294 296 301 303 304 303 306 307 313 308 305 300 300 307 301 300 305 312 313 316 318 318 320 320 320 320 321 320 319 318 315 313 313 312 309
305 305 305 305 306 307 306 306 305 307 306 301 295 288 294 292 295 294 296 299 303 304 303 303 306 306 310 307 307 299 304 305 298 296 298 308 315 314 317 318 318 317 319 319 319 318 316 313 312 311 310 309 307 306
307 307 307 307 307 306 305 305 305 309 305 297 296 288 292 296 302 301 302 303 304 304 305 305 306 307 307 303 306 303 299 296 300 300 307 313 317 316 317 318 318 318 319 319 319 315 312 312 311 310 309 308 308 308
306 306 307 306 306 305 305 306 307 308 305 297 297 294 300 301 299 300 301 300 307 307 306 304 303 300 300 304 299 297 297 296 302 311 313 316 317 318 319 320 321 320 320 319 316 314 312 312 310 309 309 309 308 308
305 307 305 305 305 305 305 307 307 299 299 296 299 303 300 301 300 302 303 303 309 306 304 306 296 297 306 300 298 304 301 307 310 312 316 318 319 319 321 321 319 320 319 316 314 313 312 312 311 310 308 309 309 310
305 306 305 307 307 307 308 307 302 299 294 301 298 300 302 303 302 304 306 307 304 302 303 300 303 300 299 296 300 308 310 310 312 314 317 319 321 319 320 321 320 319 317 314 313 311 310 309 310 310 312 312 312 311
306 307 306 307 307 305 301 302 303 295 298 300 300 302 302 303 306 307 308 309 309 310 304 303 302 301 303 308 308 309 309 310 312 315 317 319 318 318 320 320 316 313 313 309 307 306 308 311 312 311 311 311 309 310
306 307 307 307 308 303 297 298 302 296 293 296 299 299 300 301 305 306 307 308 308 307 302 301 305 309 308 309 309 310 315 316 315 310 311 316 319 318 319 317 314 315 313 310 308 304 311 312 313 313 313 311 313 309
307 307 307 306 303 299 298 296 296 294 294 293 297 298 298 302 303 304 303 308 303 301 302 308 311 313 314 315 314 317 318 317 316 316 315 312 315 315 315 316 316 314 312 311 312 311 307 310 311 313 313 311 312 312
305 306 303 303 296 295 293 296 293 294 290 292 294 298 297 300 300 301 305 301 297 300 305 306 310 311 314 310 311 313 314 313 311 310 304 306 309 309 311 314 317 315 314 312 312 311 311 311 313 313 312 312 309 314
306 305 302 300 295 293 295 299 295 297 294 300 298 296 297 298 302 307 299 301 302 308 307 307 310 315 313 312 311 311 312 310 310 310 311 311 313 314 315 314 314 311 310 311 315 311 312 302 307 309 312 311 311 311
305 301 298 298 299 299 307 305 306 304 303 301 301 300 302 304 306 303 300 303 310 313 310 310 308 309 311 310 308 310 311 313 312 312 312 311 310 312 313 311 312 313 314 315 314 314 313 312 303 309 309 309 310 308
295 297 297 294 305 302 300 301 301 301 299 301 299 299 301 304 300 299 299 302 306 308 311 312 312 310 309 311 309 311 316 314 310 308 312 313 311 311 310 312 313 314 315 312 311 311 311 310 310 309 308 308 308 308
292 303 296 304 305 304 303 300 301 302 302 300 301 305 305 301 297 295 300 305 306 307 308 308 307 307 308 309 307 310 311 312 315 312 313 315 312 310 307 309 311 311 312 312 311 310 309 309 308 306 306 305 296 305
297 302 306 312 308 307 304 305 306 304 301 301 304 302 302 295 295 300 307 309 308 310 311 311 310 308 307 308 310 312 313 314 314 313 314 316 316 314 311 308 309 311 313 312 311 310 308 308 308 307 307 308 308 307
307 307 301 304 304 306 302 302 301 300 301 306 305 299 296 296 299 306 309 312 313 313 312 311 312 311 310 310 310 311 312 313 313 312 312 313 313 314 313 314 313 295 311 313 313 312 311 309 308 307 307 307 308 309
305 307 307 303 304 304 303 301 302 305 307 304 300 300 301 307 310 310 311 312 314 313 309 308 309 313 312 311 310 310 310 310 309 306 305 306 309 310 314 312 312 312 311 311 296 301 308 308 308 308 308 308 308 309
306 311 305 304 302 301 304 307 305 308 308 308 307 307 306 308 311 314 312 311 309 310 311 311 310 309 307 308 308 309 310 310 309 307 305 305 306 309 310 309 308 309 311 311 310 309 294 302 303 307 306 307 307 307
312 311 305 305 303 306 308 310 310 310 309 307 308 304 305 307 309 312 312 313 311 311 310 310 311 310 310 309 308 308 307 311 311 311 311 310 310 310 310 309 307 307 308 310 310 309 308 307 308 307 307 306 306 304
312 308 307 302 303 309 311 310 309 308 306 305 304 307 306 305 302 308 313 313 309 309 304 309 309 309 312 313 313 313 298 312 312 312 312 312 312 312 311 311 310 310 309 308 309 309 309 307 306 307 307 307 306 307
312 313 312 310 308 306 311 309 305 304 306 305 304 306 306 304 302 308 315 317 314 311 311 312 312 313 314 314 313 313 304 314 309 298 297 294 292 297 305 310 311 310 309 308 308 308 308 308 307 308 308 307 306 306
Wind_Speed
13 13 12 8 4 8 11 6 6 7 8 9 11 7 5 3 2 6 2 3 5 6 8 5 3 6 2 3 5 7 7 6 9 11 14 7 6 9 9 8 14 11 10 8 7 12 10 10 9 10 5 3 8 10
12 10 8 12 5 5 8 6 6 7 7 9 10 9 5 3 2 4 4 3 4 6 7 8 13 15 13 8 6 3 6 1 4 8 3 3 5 5 12 9 2 8 3 3 5 2 8 5 5 6 2 6 7 11
8 10 8 9 7 7 9 8 6 7 6 8 9 9 5 3 2 4 5 3 5 6 9 8 5 4 7 11 9 6 3 6 2 5 2 2 4 4 9 7 8 4 3 4 10 6 8 7 6 6 6 9 10 12
6 11 11 9 8 8 8 8 5 6 6 7 9 8 7 2 2 6 5 2 5 5 6 6 3 3 1 6 8 11 8 6 6 5 4 2 4 3 3 5 7 2 10 10 8 9 10 7 10 12 14 13 14 12
5 6 10 8 9 8 6 6 5 5 6 7 8 8 7 3 4 8 5 4 4 6 6 5 5 3 3 6 7 7 8 7 4 5 5 4 3 4 1 5 5 7 7 6 4 13 1 14 11 13 14 13 12 13
4 7 7 7 5 5 5 7 5 5 6 7 8 8 6 5 6 6 5 4 4 2 5 3 3 1 1 4 5 5 5 4 4 3 3 4 2 5 6 4 6 8 7 8 6 12 11 15 12 10 12 12 11 11
4 6 5 5 4 3 4 3 2 5 7 8 9 7 6 5 7 5 7 5 1 4 4 4 3 5 2 4 4 4 4 1 4 0 2 2 4 4 3 5 11 11 10 11 16 17 15 15 11 12 13 14 13 14
6 4 3 3 2 0 2 3 3 5 8 9 8 5 5 7 9 5 3 8 6 4 4 4 3 5 1 5 5 1 3 2 3 2 3 2 4 2 3 10 14 13 13 15 11 2 14 14 15 14 13 13 12 11
5 4 4 4 1 1 3 2 3 6 8 7 4 5 5 5 2 4 5 8 5 4 4 3 3 6 3 3 4 4 3 3 0 1 3 4 3 2 9 11 13 14 9 13 10 14 16 15 14 13 12 11 11 10
5 4 3 2 2 2 1 3 5 7 3 4 6 4 3 3 3 7 6 5 5 4 4 3 1 3 3 4 3 3 1 2 3 4 2 3 3 7 7 7 8 8 12 13 15 13 14 14 12 12 11 9 10 10
6 4 3 3 3 2 3 4 7 2 7 4 2 1 3 1 4 3 1 3 1 3 1 3 4 2 2 2 5 3 2 1 3 5 3 3 3 6 5 7 9 10 10 8 5 10 12 13 13 13 12 11 10 10
7 6 5 5 4 5 6 2 0 5 4 4 4 4 3 3 2 3 1 2 3 3 2 3 4 3 2 2 1 0 3 2 2 3 3 3 4 5 7 9 10 11 11 10 12 14 15 14 13 12 11 11 10 10
5 4 4 4 4 4 5 7 8 7 8 4 4 2 3 1 1 2 3 4 2 2 4 4 3 1 4 2 1 2 4 3 6 3 3 1 6 6 8 9 11 12 13 15 16 15 16 15 13 12 12 10 10 10
5 3 3 4 1 7 3 9 10 6 5 3 4 3 3 1 4 4 4 4 4 4 5 4 2 1 2 2 1 3 3 4 4 4 3 5 6 9 9 10 13 14 15 16 17 16 16 15 13 12 11 10 10 10
10 9 6 9 7 3 5 9 10 4 3 3 3 2 4 1 3 4 1 3 3 4 5 4 3 1 2 2 1 2 5 4 2 3 5 5 8 10 10 11 13 14 15 15 15 15 15 14 12 12 10 10 9 8
5 1 6 6 5 5 9 9 4 3 2 1 2 2 3 1 3 4 4 3 4 4 2 3 2 3 2 0 2 1 3 3 4 3 4 6 8 10 11 12 12 13 13 14 13 14 13 12 12 12 11 10 9 8
6 4 8 7 8 9 7 5 2 2 4 3 1 2 4 3 4 4 4 4 5 4 1 2 3 4 1 2 2 3 4 6 5 4 4 7 9 11 11 12 12 13 13 14 14 13 12 12 12 11 11 9 8 6
3 4 5 9 9 5 1 2 3 3 2 2 4 5 4 4 5 3 3 3 4 3 4 4 4 4 1 2 4 3 5 4 3 3 6 7 8 9 7 11 11 12 12 13 11 12 11 11 10 8 9 8 6 6
3 3 6 10 8 4 3 1 3 4 2 4 5 4 5 4 4 4 4 3 3 2 3 2 4 2 4 4 5 5 3 2 5 6 5 6 8 8 9 9 9 9 10 9 9 8 8 9 5 7 7 8 6 5
3 5 7 9 7 3 3 0 1 2 2 4 4 3 4 4 5 4 3 2 2 1 2 2 1 3 5 6 4 1 2 3 5 6 6 6 7 9 9 9 6 6 8 6 4 7 9 8 5 5 4 4 2 3
2 4 5 6 3 4 3 3 2 3 3 3 3 4 3 3 2 3 3 3 1 3 3 3 3 5 6 7 2 2 5 4 3 3 7 8 7 7 8 9 8 4 4 4 7 7 4 5 6 5 6 7 6 4
1 1 1 1 1 0 2 1 1 1 1 2 3 1 2 3 4 3 2 3 2 3 3 2 3 4 8 9 8 9 9 9 8 6 8 4 6 6 6 6 6 9 11 10 7 6 6 5 5 5 4 4 4 4
2 1 1 2 1 1 2 3 4 5 4 5 5 5 4 3 3 5 2 1 2 1 5 3 7 11 10 8 6 6 7 10 4 4 3 3 3 2 3 4 4 5 5 5 3 3 2 4 4 4 2 4 6 6
1 3 3 3 2 3 3 2 6 0 5 10 13 17 11 5 6 7 9 5 4 6 6 9 9 7 5 4 4 5 6 6 6 6 7 5 4 6 6 4 4 4 1 1 2 3 3 4 1 5 4 6 7 7
3 1 2 3 4 4 4 5 7 9 12 12 14 9 5 7 13 15 13 11 8 8 7 5 5 5 4 6 5 5 2 3 2 4 4 3 7 5 4 3 2 2 2 3 3 3 3 3 3 3 5 6 6 8
3 3 2 8 4 5 6 5 4 5 5 5 6 4 3 5 5 5 7 7 9 8 7 5 4 5 6 5 4 4 5 1 3 3 3 0 5 0 3 2 2 2 2 4 5 4 4 5 5 5 6 5 3 7
6 8 6 2 3 3 2 3 4 5 6 6 3 3 3 3 5 2 4 5 6 6 6 6 7 6 6 6 5 4 4 3 4 3 2 2 2 3 4 5 2 2 3 3 4 6 6 6 7 7 8 7 6 8
4 6 12 11 11 10 12 7 6 6 6 2 3 6 6 4 5 5 5 6 4 4 4 6 5 6 7 6 5 5 4 3 5 4 3 1 3 2 3 1 4 4 4 1 1 2 3 4 5 6 6 7 7 7
6 6 7 12 9 6 10 12 9 5 5 8 9 8 6 3 3 4 5 5 3 3 4 6 5 1 2 5 5 5 5 4 2 2 4 4 0 1 1 4 4 5 5 5 6 6 2 3 4 4 4 4 3 4
4 3 6 7 9 8 6 6 8 7 6 6 6 6 5 6 5 3 4 5 4 3 3 3 4 4 6 8 5 4 4 5 5 5 5 4 4 4 5 7 8 8 7 7 6 7 4 6 6 8 8 6 6 6
1 1 2 3 4 5 5 5 5 4 4 5 5 5 4 3 5 5 6 4 5 8 7 5 2 5 2 4 6 7 5 4 2 4 4 6 5 5 6 7 6 5 6 7 8 7 7 9 8 8 8 10 11 10
1 3 2 3 3 3 3 1 2 2 3 2 4 4 3 3 4 1 3 4 5 6 5 6 6 5 5 5 3 3 3 6 5 4 5 5 6 5 5 5 3 3 5 6 8 9 8 8 8 10 9 11 11 11
1 2 2 1 2 3 2 2 2 3 3 1 2 1 4 5 6 5 3 2 5 2 4 5 4 5 5 6 7 6 6 7 8 6 7 8 10 10 8 8 5 5 6 6 6 7 8 10 10 11 12 11 11 13
Wind_Direction
244 248 245 244 295 286 255 252 288 307 304 319 320 299 291 251 227 270 359 225 287 285 292 268 288 296 283 242 259 67 202 193 181 234 221 197 220 181 209 180 187 178 198 207 218 222 210 151 150 210 68 100 141 158
237 233 229 218 248 293 261 241 279 302 298 316 321 324 287 251 254 267 269 188 257 261 315 317 285 279 273 291 314 274 342 11 25 225 259 119 184 162 179 172 206 205 277 191 288 146 113 133 52 90 78 136 151 141
226 221 211 206 226 257 253 230 266 300 301 313 320 323 310 221 251 275 308 327 241 263 258 230 216 148 227 236 248 284 120 347 190 338 356 347 150 202 186 155 138 140 170 137 172 118 111 123 127 120 145 123 129 125
261 217 206 212 229 259 225 216 245 289 296 313 322 322 326 250 264 265 295 327 270 287 276 107 177 237 251 243 230 237 294 302 270 253 234 232 134 267 145 128 212 55 174 141 91 120 127 113 112 119 115 112 112 104
237 214 193 209 219 236 221 217 238 283 296 313 322 320 320 250 266 265 264 261 258 294 332 327 307 83 208 219 235 228 246 276 265 204 207 102 100 148 95 172 134 196 140 196 179 152 220 140 139 133 127 122 117 113
176 185 188 210 222 208 222 240 223 277 292 308 310 311 314 293 295 272 203 143 194 243 274 279 57 202 76 187 176 196 230 261 271 299 90 98 75 263 175 121 109 104 96 75 111 136 122 132 129 126 120 110 100 98
161 167 201 227 234 236 256 200 225 284 299 301 305 308 301 289 284 309 1 28 171 310 271 273 149 99 106 150 140 164 204 279 311 123 70 103 127 267 189 122 148 129 114 119 121 121 124 143 133 123 114 108 98 92
108 127 158 169 150 191 178 191 247 280 294 306 310 306 279 284 268 244 143 210 225 271 259 283 116 170 299 166 135 208 161 207 27 11 173 103 145 278 107 125 134 124 124 132 129 157 139 124 133 133 130 127 115 105
81 102 119 128 100 292 170 216 293 305 307 306 292 281 251 227 240 66 36 149 216 295 295 291 293 101 320 125 120 151 246 148 218 168 100 263 147 113 105 143 139 143 142 134 120 113 133 137 133 136 133 122 114 112
70 78 91 85 91 100 65 339 323 314 299 285 259 243 185 74 351 184 196 202 200 181 222 279 275 110 291 174 87 147 360 51 173 73 233 249 115 86 99 95 143 130 130 142 134 139 138 141 143 140 126 118 115 115
57 61 61 76 75 38 350 329 327 297 242 238 278 285 352 209 232 226 230 251 156 207 174 20 360 45 57 203 108 344 66 69 209 98 257 166 195 137 126 121 149 149 153 160 162 153 151 142 134 130 126 119 116 112
57 53 50 41 25 4 342 9 312 270 352 358 305 272 261 237 224 264 64 168 233 57 97 331 47 357 56 306 200 252 86 234 152 125 209 216 99 116 156 143 144 147 141 137 140 129 123 126 126 124 118 110 106 106
34 32 29 17 7 10 115 20 357 317 279 246 234 272 349 156 322 277 141 130 89 37 33 344 144 353 167 236 88 177 198 102 129 192 200 54 104 137 128 136 129 128 127 123 119 119 116 115 112 109 109 109 113 117
334 330 352 330 7 140 24 2 350 314 273 339 345 338 305 71 58 52 22 49 41 342 1 316 246 337 68 193 107 175 91 155 208 192 167 95 121 142 139 140 137 133 132 129 125 124 120 116 111 108 110 121 127 127
38 64 75 53 88 101 354 337 330 318 320 351 318 359 22 328 247 73 328 45 15 3 346 281 221 229 129 144 259 118 183 189 219 77 62 89 123 143 145 145 137 135 136 134 134 131 125 124 121 120 127 132 131 133
348 325 30 359 15 357 342 297 287 313 285 293 252 207 154 345 83 47 12 22 22 331 270 213 267 184 186 341 218 160 178 96 72 62 67 121 136 143 146 140 138 133 136 134 130 130 127 128 132 132 136 135 138 141
317 37 14 3 343 313 299 303 297 330 325 311 48 0 335 324 9 16 346 4 356 319 8 305 237 56 194 212 166 30 34 52 28 75 120 106 136 141 134 134 134 135 136 135 136 139 134 131 133 142 144 149 145 154
67 82 5 345 331 310 284 310 304 302 297 2 318 34 350 328 320 359 13 20 350 13 330 24 311 231 231 163 84 53 55 56 41 101 101 109 119 132 151 140 136 138 137 140 135 131 137 146 155 157 149 160 162 154
76 38 358 339 328 297 312 107 321 315 335 344 339 345 338 323 323 325 315 333 342 349 312 278 261 239 74 49 22 61 92 108 124 98 94 102 126 129 117 113 114 129 134 123 140 147 155 184 172 156 174 168 207 164
47 29 1 349 336 326 308 359 286 294 311 3 294 326 328 316 327 312 291 298 268 276 237 256 25 44 43 40 23 20 120 150 142 121 111 100 103 112 117 118 122 120 128 112 136 166 180 192 191 190 210 163 222 169
330 357 354 360 33 16 320 342 352 14 334 318 335 317 312 281 292 28 36 321 296 10 327 345 342 62 28 46 93 107 59 21 72 120 125 109 102 106 114 114 123 121 117 147 220 197 234 193 188 182 162 200 205 223
282 349 333 26 67 338 269 248 228 189 251 275 288 292 330 11 39 17 333 57 5 292 275 271 217 143 94 73 64 67 70 63 38 76 78 110 123 134 154 162 152 167 189 189 201 178 204 205 182 189 220 228 195 200
230 210 258 232 274 207 287 173 239 194 247 163 179 175 153 184 188 195 124 290 297 36 21 47 80 99 96 86 91 82 89 92 66 28 59 290 288 269 189 152 140 143 168 161 215 231 172 52 138 258 200 234 219 169
59 280 309 315 285 329 195 231 192 157 98 74 70 68 59 80 120 74 66 57 73 115 123 85 80 68 41 36 169 166 184 206 206 201 218 232 173 149 158 175 149 142 313 123 175 169 184 188 109 219 226 218 200 194
286 22 276 294 206 262 128 50 38 69 71 76 73 71 55 57 65 62 57 56 55 66 59 81 122 122 90 91 88 101 129 292 350 120 160 195 182 161 165 168 141 55 221 181 182 187 177 209 225 219 198 215 216 219
13 114 4 347 14 356 1 28 43 35 27 57 57 68 67 44 42 54 45 27 52 47 51 52 85 98 102 86 39 1 62 15 301 21 65 70 97 101 245 230 279 216 229 251 252 234 227 233 232 228 232 181 174 263
34 22 33 106 311 312 49 12 15 17 26 31 33 57 89 68 72 45 77 36 36 41 39 36 36 51 56 54 58 43 40 30 28 57 44 13 7 354 334 334 103 134 194 252 251 257 262 255 246 241 244 245 228 214
22 2 47 56 55 50 53 50 38 36 21 32 22 42 36 56 51 34 23 12 15 35 44 65 48 42 41 26 16 5 53 100 130 144 100 101 60 47 1 59 57 7 323 6 313 240 269 293 289 272 262 260 256 242
65 64 57 57 53 53 46 51 62 51 11 78 76 78 68 51 16 18 25 14 28 359 24 66 41 40 109 98 58 26 11 351 306 258 263 258 197 116 4 291 270 236 248 216 192 287 267 294 312 313 288 286 323 335
70 18 81 59 60 64 52 40 66 75 72 95 117 139 136 81 54 358 39 53 60 36 16 27 24 13 5 343 35 59 65 29 17 1 358 355 1 359 344 334 311 288 268 248 240 222 186 238 222 237 243 250 255 263
286 255 95 76 81 97 103 89 65 73 82 63 68 78 52 54 59 54 60 20 25 41 16 14 53 65 25 316 19 360 34 79 27 304 304 314 309 319 333 336 322 297 277 260 254 242 257 227 240 260 250 241 255 254
338 359 288 144 141 132 201 146 48 47 27 26 41 21 125 96 72 56 23 1 51 19 8 22 37 38 23 360 1 333 195 306 301 292 288 279 287 298 295 303 308 300 280 262 252 250 212 233 260 263 251 246 255 263
18 43 34 88 138 184 147 213 165 216 186 190 83 7 350 25 36 34 77 29 337 5 336 341 355 15 24 345 354 335 309 308 313 290 290 294 294 302 304 290 273 258 261 265 270 268 252 242 239 237 230 239 245 252